BAW467 LEBL-EGLL

Flight info

Callsign BAW467
Flight time 1h 34m
Altitude 37000
Route NATPI DCT EVNAM DCT AGN DCT SECHE DCT UVELI DCT CNA DCT MANAK DCT EPAPU DCT RINSO DCT EKRAS DCT REVTU DCT BOLRO UP87 ROXOG
Aircraft A319/M-SDE3FGHIRWY/LB1

Departure

Time 2026-05-04 08:50
Airport Josep Tarradellas Barcelona-El Prat Airport (LEBL)

Arrival

Time 2026-05-04 10:25
Airport London Heathrow Airport (EGLL)
Time Latitude Longitude Altitude Speed Heading
2026-05-04 08:27 41.29218 2.08159 18 ft 0 kts 182°
2026-05-04 08:41 41.29224 2.08160 45 ft 3 kts 182°
2026-05-04 08:41 41.29243 2.08161 9 ft 3 kts 182°
2026-05-04 08:41 41.29262 2.08162 21 ft 3 kts 182°
2026-05-04 08:42 41.29281 2.08163 21 ft 3 kts 182°
2026-05-04 08:42 41.29299 2.08165 21 ft 3 kts 163°
2026-05-04 08:42 41.29312 2.08151 19 ft 2 kts 81°
2026-05-04 08:42 41.29311 2.08148 19 ft 0 kts 75°
2026-05-04 08:46 41.29679 2.08313 18 ft 17 kts 68°
2026-05-04 08:46 41.29735 2.08479 18 ft 20 kts 65°
2026-05-04 08:46 41.29802 2.08675 18 ft 26 kts 65°
2026-05-04 08:46 41.29888 2.08923 18 ft 33 kts 66°
2026-05-04 08:47 41.29973 2.09172 18 ft 26 kts 66°
2026-05-04 08:47 41.30052 2.09404 17 ft 29 kts 66°
2026-05-04 08:47 41.30142 2.09667 20 ft 34 kts 65°
2026-05-04 08:47 41.30224 2.09907 19 ft 24 kts 65°
2026-05-04 08:48 41.30299 2.10127 20 ft 27 kts 64°
2026-05-04 08:48 41.30371 2.10336 18 ft 15 kts 66°
2026-05-04 08:48 41.30461 2.10358 18 ft 18 kts 336°
2026-05-04 08:48 41.30528 2.10243 14 ft 18 kts 256°
2026-05-04 08:49 41.30507 2.10179 16 ft 0 kts 245°
2026-05-04 08:50 41.29720 2.07885 63 ft 166 kts 245°
2026-05-04 08:50 41.29251 2.06516 745 ft 162 kts 246°
2026-05-04 08:51 41.28785 2.05144 1429 ft 168 kts 246°
2026-05-04 08:51 41.28285 2.03668 1883 ft 187 kts 246°
2026-05-04 08:51 41.27732 2.01967 2316 ft 213 kts 247°
2026-05-04 08:51 41.27109 2.00070 2937 ft 234 kts 246°
2026-05-04 08:52 41.26427 1.98005 3676 ft 253 kts 246°
2026-05-04 08:52 41.25697 1.95851 4692 ft 257 kts 245°
2026-05-04 08:52 41.24940 1.93699 5823 ft 257 kts 244°
2026-05-04 08:52 41.24176 1.91544 6876 ft 259 kts 244°
2026-05-04 08:53 41.23415 1.89366 7909 ft 260 kts 244°
2026-05-04 08:54 41.22103 1.70850 13367 ft 325 kts 287°
2026-05-04 08:55 41.23234 1.68199 14115 ft 336 kts 303°
2026-05-04 08:55 41.24895 1.65961 14876 ft 343 kts 313°
2026-05-04 08:55 41.26687 1.63840 15630 ft 346 kts 313°
2026-05-04 08:55 41.28497 1.61711 16378 ft 349 kts 313°
2026-05-04 08:57 41.44589 1.52440 20769 ft 396 kts 345°
2026-05-04 09:01 41.85030 1.43423 27685 ft 443 kts 343°
2026-05-04 09:01 41.88077 1.42738 28135 ft 445 kts 343°
2026-05-04 09:01 41.91149 1.42049 28594 ft 449 kts 343°
2026-05-04 09:01 41.94232 1.41358 29033 ft 452 kts 343°
2026-05-04 09:02 41.97347 1.40659 29474 ft 454 kts 343°
2026-05-04 09:02 42.00474 1.39958 29952 ft 457 kts 343°
2026-05-04 09:02 42.03605 1.39258 30442 ft 456 kts 343°
2026-05-04 09:02 42.06737 1.38557 30933 ft 456 kts 343°
2026-05-04 09:03 42.09862 1.37847 31431 ft 456 kts 343°
2026-05-04 09:03 42.12987 1.37132 31944 ft 456 kts 342°
2026-05-04 09:03 42.16109 1.36416 32460 ft 455 kts 342°
2026-05-04 09:03 42.19223 1.35706 33050 ft 453 kts 343°
2026-05-04 09:04 42.22331 1.35003 33590 ft 452 kts 343°
2026-05-04 09:04 42.25431 1.34302 34118 ft 451 kts 342°
2026-05-04 09:04 42.28513 1.33605 34588 ft 447 kts 342°
2026-05-04 09:04 42.31572 1.32915 35066 ft 444 kts 342°
2026-05-04 09:05 42.34607 1.32228 35550 ft 441 kts 343°
2026-05-04 09:05 42.37620 1.31545 36044 ft 437 kts 343°
2026-05-04 09:05 42.40601 1.30870 36565 ft 432 kts 343°
2026-05-04 09:05 42.43565 1.30193 36939 ft 433 kts 343°
2026-05-04 09:06 42.46559 1.29499 37022 ft 441 kts 343°
2026-05-04 09:07 42.69212 1.24297 36987 ft 496 kts 345°
2026-05-04 09:08 42.72621 1.23532 36989 ft 498 kts 345°
2026-05-04 09:08 42.79472 1.22384 36982 ft 502 kts 349°
2026-05-04 09:09 42.86434 1.21580 36975 ft 502 kts 349°
2026-05-04 09:09 42.93395 1.20751 36981 ft 502 kts 349°
2026-05-04 09:10 43.00339 1.19797 36972 ft 501 kts 348°
2026-05-04 09:10 43.07272 1.18798 36984 ft 501 kts 349°
2026-05-04 09:11 43.14213 1.17810 36976 ft 502 kts 349°
2026-05-04 09:11 43.21166 1.16850 36969 ft 502 kts 349°
2026-05-04 09:12 43.28115 1.15904 36970 ft 502 kts 349°
2026-05-04 09:14 43.55924 1.11976 36979 ft 502 kts 348°
2026-05-04 09:14 43.62511 1.09382 36978 ft 487 kts 328°
2026-05-04 09:15 43.68305 1.04691 36974 ft 482 kts 323°
2026-05-04 09:15 43.74031 0.99842 36973 ft 483 kts 323°
2026-05-04 09:17 44.00660 0.79669 36973 ft 489 kts 330°
2026-05-04 09:18 44.06835 0.75677 36992 ft 490 kts 330°
2026-05-04 09:18 44.13007 0.71664 36970 ft 489 kts 330°
2026-05-04 09:19 44.19134 0.67686 36977 ft 489 kts 330°
2026-05-04 09:19 44.25311 0.63667 36973 ft 490 kts 330°
2026-05-04 09:20 44.31488 0.59643 36966 ft 490 kts 330°
2026-05-04 09:20 44.37669 0.55610 36969 ft 490 kts 330°
2026-05-04 09:21 44.43838 0.51553 36972 ft 491 kts 330°
2026-05-04 09:21 44.50019 0.47478 36961 ft 491 kts 330°
2026-05-04 09:22 44.56191 0.43376 36956 ft 491 kts 330°
2026-05-04 09:22 44.62361 0.39260 36960 ft 491 kts 330°
2026-05-04 09:23 44.68543 0.35137 36952 ft 492 kts 330°
2026-05-04 09:23 44.73874 0.32275 36953 ft 497 kts 340°
2026-05-04 09:25 45.01621 0.21021 36959 ft 498 kts 340°
2026-05-04 09:26 45.08228 0.18310 36963 ft 498 kts 340°
2026-05-04 09:26 45.14888 0.15577 36959 ft 498 kts 340°
2026-05-04 09:27 45.20462 0.13285 36978 ft 498 kts 340°
2026-05-04 09:27 45.28199 0.10099 36973 ft 498 kts 340°
2026-05-04 09:28 45.33781 0.07804 36961 ft 498 kts 340°
2026-05-04 09:28 45.40433 0.05054 36964 ft 498 kts 340°
2026-05-04 09:29 45.47085 0.02296 36974 ft 498 kts 340°
2026-05-04 09:29 45.53738 -0.00479 36971 ft 498 kts 340°
2026-05-04 09:30 45.60388 -0.03251 36974 ft 498 kts 341°
2026-05-04 09:30 45.67029 -0.06026 36972 ft 497 kts 341°
2026-05-04 09:31 45.73672 -0.08810 36974 ft 497 kts 341°
2026-05-04 09:31 45.80315 -0.11596 36979 ft 497 kts 341°
2026-05-04 09:32 45.86954 -0.14388 36974 ft 497 kts 341°
2026-05-04 09:34 46.13509 -0.25634 36980 ft 498 kts 341°
2026-05-04 09:34 46.20154 -0.28471 36988 ft 498 kts 341°
2026-05-04 09:35 46.26801 -0.31300 36976 ft 498 kts 341°
2026-05-04 09:35 46.33440 -0.34132 36976 ft 498 kts 341°
2026-05-04 09:37 46.60003 -0.45600 36975 ft 498 kts 341°
2026-05-04 09:38 46.66646 -0.48479 36974 ft 498 kts 341°
2026-05-04 09:38 46.73281 -0.51364 36973 ft 498 kts 341°
2026-05-04 09:39 46.79919 -0.54257 36969 ft 498 kts 341°
2026-05-04 09:39 46.86553 -0.57157 36980 ft 498 kts 341°
2026-05-04 09:40 46.93192 -0.60073 36980 ft 498 kts 341°
2026-05-04 09:40 46.99830 -0.62995 36979 ft 498 kts 341°
2026-05-04 09:42 47.26361 -0.74721 36983 ft 499 kts 340°
2026-05-04 09:43 47.32999 -0.77685 36986 ft 499 kts 340°
2026-05-04 09:43 47.39644 -0.80651 36990 ft 499 kts 340°
2026-05-04 09:44 47.46279 -0.83613 37002 ft 498 kts 341°
2026-05-04 09:46 47.72784 -0.95550 37001 ft 497 kts 340°
2026-05-04 09:46 47.79400 -0.98553 37001 ft 497 kts 341°
2026-05-04 09:47 47.86010 -1.01555 37013 ft 496 kts 341°
2026-05-04 09:49 48.12352 -1.13610 37006 ft 494 kts 341°
2026-05-04 09:51 48.35293 -1.24232 37005 ft 493 kts 341°
2026-05-04 09:51 48.41849 -1.27269 36987 ft 493 kts 341°
2026-05-04 09:52 48.48401 -1.30319 37002 ft 492 kts 341°
2026-05-04 09:52 48.54941 -1.33392 36992 ft 492 kts 341°
2026-05-04 09:53 48.61473 -1.36468 36992 ft 492 kts 341°
2026-05-04 09:53 48.68015 -1.39543 37002 ft 492 kts 341°
2026-05-04 09:54 48.74556 -1.42619 37006 ft 493 kts 341°
2026-05-04 09:54 48.81099 -1.45706 37007 ft 493 kts 341°
2026-05-04 09:55 48.87648 -1.48812 37007 ft 493 kts 341°
2026-05-04 09:55 48.94314 -1.51308 37007 ft 494 kts 347°
2026-05-04 09:56 49.01039 -1.53473 37008 ft 494 kts 347°
2026-05-04 09:56 49.07763 -1.55656 37010 ft 494 kts 347°
2026-05-04 09:57 49.14482 -1.57824 37007 ft 494 kts 347°
2026-05-04 09:57 49.21206 -1.59987 37014 ft 494 kts 347°
2026-05-04 09:58 49.27933 -1.62163 37027 ft 494 kts 347°
2026-05-04 09:58 49.34657 -1.64348 37032 ft 494 kts 347°
2026-05-04 10:00 49.61544 -1.72398 37031 ft 493 kts
2026-05-04 10:02 49.85549 -1.70386 34161 ft 499 kts
2026-05-04 10:04 50.09770 -1.64434 29956 ft 515 kts 18°
2026-05-04 10:04 50.13195 -1.62776 29295 ft 516 kts 17°
2026-05-04 10:04 50.16627 -1.61119 28650 ft 516 kts 17°
2026-05-04 10:04 50.20060 -1.59458 28272 ft 515 kts 18°
2026-05-04 10:05 50.23479 -1.57797 28535 ft 513 kts 18°
2026-05-04 10:05 50.26879 -1.56141 28873 ft 513 kts 18°
2026-05-04 10:05 50.30296 -1.54473 29109 ft 515 kts 18°
2026-05-04 10:06 50.37142 -1.51118 28859 ft 516 kts 18°
2026-05-04 10:06 50.40567 -1.49435 28627 ft 515 kts 18°
2026-05-04 10:06 50.43989 -1.47756 28672 ft 514 kts 17°
2026-05-04 10:08 50.62717 -1.35271 25568 ft 461 kts 29°
2026-05-04 10:08 50.65505 -1.32871 24998 ft 453 kts 29°
2026-05-04 10:08 50.68253 -1.30503 24446 ft 445 kts 29°
2026-05-04 10:08 50.70914 -1.28199 23904 ft 438 kts 29°
2026-05-04 10:09 50.73557 -1.25907 23326 ft 431 kts 29°
2026-05-04 10:09 50.76166 -1.23640 22690 ft 424 kts 30°
2026-05-04 10:09 50.78686 -1.21295 22063 ft 418 kts 32°
2026-05-04 10:09 50.81125 -1.18838 21458 ft 413 kts 34°
2026-05-04 10:10 50.83503 -1.16331 20864 ft 409 kts 34°
2026-05-04 10:10 50.85848 -1.13814 20277 ft 406 kts 35°
2026-05-04 10:10 50.88181 -1.11313 19703 ft 403 kts 34°
2026-05-04 10:10 50.90497 -1.08857 19149 ft 399 kts 34°
2026-05-04 10:11 50.92795 -1.06452 18590 ft 395 kts 34°
2026-05-04 10:11 50.95090 -1.04072 18003 ft 391 kts 33°
2026-05-04 10:11 50.97358 -1.01726 17383 ft 387 kts 33°
2026-05-04 10:11 50.99600 -0.99401 16773 ft 383 kts 35°
2026-05-04 10:12 51.00960 -0.97644 16364 ft 379 kts 45°
2026-05-04 10:12 51.03294 -0.93563 15496 ft 365 kts 49°
2026-05-04 10:12 51.04957 -0.90600 14880 ft 354 kts 49°
2026-05-04 10:12 51.06574 -0.87713 14275 ft 345 kts 49°
2026-05-04 10:13 51.08148 -0.84905 13663 ft 337 kts 49°
2026-05-04 10:13 51.09177 -0.83071 13219 ft 332 kts 49°
2026-05-04 10:13 51.10697 -0.80361 12564 ft 326 kts 49°
2026-05-04 10:13 51.12215 -0.77712 11920 ft 321 kts 48°
2026-05-04 10:14 51.13707 -0.75172 11627 ft 305 kts 47°
2026-05-04 10:14 51.15119 -0.72788 11361 ft 291 kts 47°
2026-05-04 10:16 51.24515 -0.56839 9009 ft 276 kts 47°
2026-05-04 10:16 51.25814 -0.54618 8666 ft 271 kts 47°
2026-05-04 10:16 51.27084 -0.52439 8320 ft 264 kts 47°
2026-05-04 10:16 51.28319 -0.50321 7995 ft 257 kts 47°
2026-05-04 10:17 51.29523 -0.48254 7667 ft 252 kts 47°
2026-05-04 10:17 51.30711 -0.46214 7341 ft 250 kts 47°
2026-05-04 10:19 51.38789 -0.32320 5085 ft 234 kts 47°
2026-05-04 10:19 51.39890 -0.30416 4752 ft 231 kts 47°
2026-05-04 10:19 51.40965 -0.28556 4411 ft 223 kts 47°
2026-05-04 10:19 51.41998 -0.26768 4101 ft 213 kts 47°
2026-05-04 10:20 51.42973 -0.25079 3781 ft 201 kts 47°
2026-05-04 10:20 51.43889 -0.23486 3448 ft 193 kts 48°
2026-05-04 10:20 51.44853 -0.22011 3103 ft 188 kts 32°
2026-05-04 10:20 51.46091 -0.21586 2748 ft 183 kts 353°
2026-05-04 10:21 51.47171 -0.22427 2601 ft 174 kts 319°
2026-05-04 10:21 51.47760 -0.24115 2452 ft 173 kts 282°
2026-05-04 10:21 51.47803 -0.26014 2262 ft 173 kts 270°
2026-05-04 10:21 51.47798 -0.27934 2048 ft 172 kts 271°
2026-05-04 10:22 51.47791 -0.31718 1591 ft 166 kts 271°
2026-05-04 10:22 51.47787 -0.33463 1364 ft 147 kts 271°
2026-05-04 10:22 51.47784 -0.35051 1166 ft 139 kts 272°
2026-05-04 10:23 51.47781 -0.36571 982 ft 136 kts 272°
2026-05-04 10:23 51.47774 -0.38076 812 ft 133 kts 272°
2026-05-04 10:25 51.47742 -0.45804 84 ft 12 kts 246°
2026-05-04 10:25 51.47684 -0.45924 87 ft 15 kts 225°
2026-05-04 10:25 51.47615 -0.46023 88 ft 10 kts 220°
2026-05-04 10:25 51.47595 -0.46141 86 ft 13 kts 271°
2026-05-04 10:26 51.47595 -0.46302 89 ft 16 kts 269°
2026-05-04 10:26 51.47593 -0.46502 86 ft 20 kts 270°
2026-05-04 10:26 51.47592 -0.46739 86 ft 22 kts 269°
2026-05-04 10:26 51.47583 -0.46947 86 ft 19 kts 270°
2026-05-04 10:27 51.47582 -0.47170 88 ft 21 kts 270°
2026-05-04 10:27 51.47582 -0.47384 89 ft 17 kts 269°
2026-05-04 10:27 51.47581 -0.47597 90 ft 21 kts 270°
2026-05-04 10:27 51.47581 -0.47848 89 ft 24 kts 270°
2026-05-04 10:28 51.47579 -0.48116 88 ft 24 kts 269°
2026-05-04 10:28 51.47578 -0.48375 89 ft 18 kts 270°
2026-05-04 10:28 51.47577 -0.48597 86 ft 21 kts 269°
2026-05-04 10:28 51.47577 -0.48828 86 ft 18 kts 269°
2026-05-04 10:29 51.47548 -0.48954 88 ft 12 kts 201°
2026-05-04 10:29 51.47482 -0.48898 88 ft 9 kts 152°
2026-05-04 10:29 51.47439 -0.48892 86 ft 3 kts 180°
2026-05-04 10:29 51.47408 -0.48891 86 ft 6 kts 177°
2026-05-04 10:30 51.47403 -0.48891 86 ft 0 kts 178°